Regional Weather Roundup
Issued by NWS Charleston, SC

Current Version | Previous Version | Graphics & Text | Print | Product List | Glossary On
Versions: 1 2 3 4 5 6 7 8 9 10 11 12 13 14 15 16 17 18 19 20 21 22 23 24 25 26 27 28 29 30 31 32 33 34 35 36 37 38 39 40 41 42 43 44 45 46 47 48 49 50
000
ASUS42 KCHS 291528
RWRCHS

REGIONAL WEATHER ROUNDUP
NATIONAL WEATHER SERVICE CHARLESTON SC
1100 AM EDT FRI JUL 29 2016

NOTE: "FAIR" INDICATES FEW OR NO CLOUDS BELOW 12,000 FEET WITH NO
SIGNIFICANT WEATHER AND/OR OBSTRUCTIONS TO VISIBILITY.

NOT ALL STATIONS ARE QUALITY CONTROLLED. USE DATA WITH CAUTION...
ESPECIALLY DEWPOINT OBSERVATIONS.

SCZ027-030-031-034>040-042>050-291600-
...SOUTHEAST SOUTH CAROLINA...

CITY           SKY/WX    TMP DP  RH WIND       PRES   REMARKS
N CHARLESTON   MOSUNNY   92  71  50 W12G18    29.98S HX  98
WATERFRONT PRK   N/A     88  73  61 W7        29.96F HX  95
MOUNT PLEASANT FAIR      91  73  55 W13       29.98S HX 100
JOHNS ISLAND   FAIR      91  73  55 W10       29.99S HX 100
PINOPOLIS        N/A     88  72  58 W13       29.90F HX  94
MONCKS CORNER  FAIR      88  64  45 W9G16     29.97S
SUMMERVILLE    FAIR      91  70  49 W13G18    29.99S HX  97
BEAUFORT MCAS  SUNNY     92  71  50 W13       30.00S HX  98
BEAUFORT ARPT  FAIR      91  72  52 W8        30.00R HX  98
HILTON HEAD IS SUNNY     90  72  55 W10       30.00S HX  96
WALTERBORO     SUNNY     91  70  49 W14G20    30.00S HX  97
ALLENDALE      FAIR      90  70  51 VRB6G14   29.99S HX  95

...SOUTHERN MIDLANDS AND PEE DEE...

CITY           SKY/WX    TMP DP  RH WIND       PRES   REMARKS
GEORGETOWN     FAIR      88  72  58 W16G23    29.97F HX  94
KINGSTREE      FAIR      88  70  55 W10       29.96S HX  92
ORANGEBURG     SUNNY     89  71  55 W9        29.98S HX  95
BARNWELL       NOT AVBL
AIKEN          FAIR      88  70  55 W13       30.02F HX  92
MANNING        FAIR      88  70  55 W8G18     29.96F HX  92
COLUMBIA       MOSUNNY   91  70  49 W10       29.96S HX  96
SUMTER         MOSUNNY   88  71  56 W9        29.94S HX  94
FLORENCE       PTSUNNY   86  71  60 W10       29.95S HX  91
MYRTLE BEACH   SUNNY     91  66  43 W12G17    29.96F HX  94
N MYRTLE BEACH SUNNY     91  70  49 SW15G23   29.93F HX  96

$$

GAZ063-065-086>088-099>101-113>116-118-119-134>141-150-291600-
...SOUTHEAST GEORGIA...

CITY           SKY/WX    TMP DP  RH WIND       PRES   REMARKS
SAVANNAH ARPT  MOSUNNY   91  70  49 NW10      30.02R HX  96
HUNTER AAF     SUNNY     91  76  61 NW10G17   30.00R HX 102
FORT STEWART   SUNNY     90  71  53 W9        30.00S HX  96
STATESBORO     SUNNY     89  74  61 W7        30.02S HX  99
SYLVANIA       NOT AVBL
CLAXTON        FAIR      91  73  56 W9        30.02S HX  99

...CSRA...CENTRAL AND FAR SOUTHEAST GEORGIA...

CITY           SKY/WX    TMP DP  RH WIND       PRES   REMARKS
THOMSON        NOT AVBL
AUGUSTA-BUSH   SUNNY     91  68  46 W12       29.98F HX  95
AUGUSTA-DANIEL SUNNY     90  69  50 W10       30.01S HX  94
SWAINSBORO     FAIR      90  70  51 NW8       30.03S HX  95
VIDALIA        SUNNY     90  70  51 NW9       30.03F HX  95
EASTMAN        FAIR      90  62  39 W7        30.06F HX  90
HAZLEHURST     FAIR      92  74  54 CALM      30.03S HX 101
ALMA           SUNNY     90  72  55 VRB7      30.04S HX  97
WAYCROSS       SUNNY     95  77  56 NW8       30.04S HX 109
JESUP          FAIR      91  77  62 W9        30.03S HX 105
BAXLEY         FAIR      90  77  66 W5        30.03F HX 102
BRUNSWICK      SUNNY     91  77  62 W10       30.04S HX 105
SAINT SIMONS   SUNNY     90  73  57 W8        30.03S HX  98

$$

SCZ027-028-034-036>038-045-046-048>050-GAZ119-141-291600-
...LAKE AND SUPPLEMENTAL COASTAL OBSERVATIONS...

STATION/POSITION TIME  TEMP    WIND        PRES    WAVE   SWELL
                       AIR SEA DIR/SP/G            HT/PER HT/PER/DIR
                 (UTC) (F)     (DEG/KT/KT) (MB)    (FT/S) (FT/S/D)
WINYAH BAY       1445   88     260/ 12     1014.0S
LAKE MURRAY      1500   85     260/ 10/ 12 1014.6R
ACE BASIN NERRS  1400   87     260/  3     1016.0S
FORT PULASKI     1500   87 87  280/ 12/ 15 1016.7S
SAPELO ISLAND    1500   90     300/  6     1017.0S

$$

ANZ835-935-AMZ111-154-330-350-352-354-370-450-454-472-291600-
...C-MAN AND BUOY OBSERVATIONS...

STATION/POSITION TIME  TEMP    WIND        PRES    WAVE   SWELL
                       AIR SEA DIR/SP/G            HT/PER HT/PER/DIR
                 (UTC) (F)     (DEG/KT/KT) (MB)    (FT/S) (FT/S/D)
BUOY 41004       1450   85 85  260/ 10/ 14 1015.2S   4/ 6   3/210/ 6
BUOY 41008       1450   85 86  280/  8/  8 1016.8R   2/ 3   2/140/ 4
FOLLY BEACH CMAN 1500   90     280/  8/ 12 1015.5F
CAPERS NEARSHORE 1508   87 85  270/ 12/ 17 1015.1F
FRIPP NEARSHORE  1508   87 87  290/ 10/ 14 1015.4S


STATION/POSITION TIME  TEMP    WIND        PRES    WAVE   SWELL
                       AIR SEA DIR/SP/G            HT/PER HT/PER/DIR
                 (UTC) (F)     (DEG/KT/KT) (MB)    (FT/S) (FT/S/D)
5E ST. MARYS GA  1501      86                N/A     2/ 5
FRYING PAN BUOY  1500   85 85  240/ 12/ 16 1014.3R
BUOY 41025       1450   85 85  240/ 16/ 16 1012.9    4/ 6   2/140/ 9
CAPE LOOKOUT NC  1500   87     230/ 12/ 17 1012.8R
BUOY 41002       1450   84 85  230/  8/ 10 1016.7R   3/ 6   3/250/ 6
BUOY 41010       1420   85 86  270/ 12/ 14 1017.9R
ST AUGUSTINE FL  1500   84 84   50/  6/  7 1018.7F


$$



USA.gov is the U.S. government's official web portal to all federal, state and local government web resources and services.